TimeICT,TemperatureF,Dew PointF,Humidity,Sea Level PressureIn,VisibilityMPH,Wind Direction,Wind SpeedMPH,Gust SpeedMPH,PrecipitationIn,Events,Conditions,WindDirDegrees,DateUTC
12:00 AM,75.2,73.4,94,29.86,5.6,Calm,Calm,-,N/A,,Scattered Clouds,0,2012-11-01 17:00:00
12:30 AM,75.2,73.4,94,29.86,5.6,Calm,Calm,-,N/A,,Scattered Clouds,0,2012-11-01 17:30:00
1:00 AM,76,75,95,29.81,6,Calm,Calm,,,,Scattered Clouds,,2012-11-01 18:00:00
1:00 AM,75.2,73.4,94,29.83,5.6,Calm,Calm,-,N/A,,Scattered Clouds,0,2012-11-01 18:00:00
1:30 AM,75.2,73.4,94,29.83,5.6,Calm,Calm,-,N/A,,Scattered Clouds,0,2012-11-01 18:30:00
2:00 AM,75.2,73.4,94,29.83,5.6,Calm,Calm,-,N/A,,Scattered Clouds,0,2012-11-01 19:00:00
2:30 AM,75.2,73.4,94,29.80,5.6,Calm,Calm,-,N/A,,Scattered Clouds,0,2012-11-01 19:30:00
3:00 AM,75.2,73.4,94,29.80,5.6,Calm,Calm,-,N/A,,Scattered Clouds,0,2012-11-01 20:00:00
3:30 AM,75.2,73.4,94,29.80,5.6,Calm,Calm,-,N/A,,Scattered Clouds,0,2012-11-01 20:30:00
4:00 AM,75.2,73.4,94,29.80,5.6,Calm,Calm,-,N/A,,Scattered Clouds,0,2012-11-01 21:00:00
4:30 AM,75.2,73.4,94,29.80,5.6,Calm,Calm,-,N/A,,Scattered Clouds,0,2012-11-01 21:30:00
5:30 AM,75.2,73.4,94,29.80,5.6,Calm,Calm,-,N/A,,Mostly Cloudy,0,2012-11-01 22:30:00
6:00 AM,75.2,73.4,94,29.80,5.0,Calm,Calm,-,N/A,,Scattered Clouds,0,2012-11-01 23:00:00
6:30 AM,75.2,73.4,94,29.83,5.6,Calm,Calm,-,N/A,,Scattered Clouds,0,2012-11-01 23:30:00
7:00 AM,75,74,95,29.77,6,Calm,Calm,,,,Scattered Clouds,,2012-11-02 00:00:00
7:00 AM,75.2,73.4,94,29.83,5.6,Calm,Calm,-,N/A,,Mostly Cloudy,0,2012-11-02 00:00:00
7:30 AM,78.8,75.2,89,29.86,5.6,Calm,Calm,-,N/A,,Mostly Cloudy,0,2012-11-02 00:30:00
8:00 AM,80.6,75.2,84,29.86,5.6,ENE,3.5,-,N/A,,Scattered Clouds,60,2012-11-02 01:00:00
8:30 AM,82.4,75.2,79,29.89,5.6,East,5.8,-,N/A,,Scattered Clouds,90,2012-11-02 01:30:00
9:00 AM,84.2,75.2,74,29.89,5.6,ENE,6.9,-,N/A,,Scattered Clouds,60,2012-11-02 02:00:00
9:30 AM,84.2,75.2,74,29.86,6.2,ENE,5.8,-,N/A,,Scattered Clouds,60,2012-11-02 02:30:00
10:00 AM,86.0,73.4,66,29.86,6.2,ENE,6.9,-,N/A,,Scattered Clouds,60,2012-11-02 03:00:00
10:30 AM,86.0,73.4,66,29.86,6.2,NNE,5.8,-,N/A,,Scattered Clouds,30,2012-11-02 03:30:00
11:00 AM,86.0,73.4,66,29.86,6.2,East,6.9,-,N/A,,Scattered Clouds,90,2012-11-02 04:00:00
11:30 AM,87.8,75.2,66,29.83,6.2,ENE,5.8,-,N/A,,Scattered Clouds,60,2012-11-02 04:30:00
12:00 PM,87.8,73.4,62,29.83,6.2,ESE,10.4,-,N/A,,Scattered Clouds,120,2012-11-02 05:00:00
12:30 PM,86.0,75.2,70,29.80,6.2,NNW,8.1,-,N/A,,Mostly Cloudy,330,2012-11-02 05:30:00
1:00 PM,88,76,59,29.78,6,WNW,9.2,,,,Scattered Clouds,300,2012-11-02 06:00:00
1:00 PM,86.0,73.4,66,29.80,6.2,WNW,9.2,-,N/A,,Mostly Cloudy,300,2012-11-02 06:00:00
1:30 PM,87.8,73.4,62,29.77,6.2,WSW,5.8,-,N/A,,Mostly Cloudy,240,2012-11-02 06:30:00
2:00 PM,87.8,75.2,66,29.77,6.2,West,8.1,-,N/A,,Mostly Cloudy,270,2012-11-02 07:00:00
2:30 PM,87.8,73.4,62,29.77,6.2,West,6.9,-,N/A,,Mostly Cloudy,270,2012-11-02 07:30:00
3:00 PM,86.0,73.4,66,29.77,6.2,West,13.8,-,N/A,,Mostly Cloudy,270,2012-11-02 08:00:00
3:30 PM,86.0,73.4,66,29.77,6.2,WNW,8.1,-,N/A,,Mostly Cloudy,290,2012-11-02 08:30:00
4:00 PM,84.2,73.4,70,29.77,5.6,WNW,8.1,-,N/A,,Mostly Cloudy,300,2012-11-02 09:00:00
4:30 PM,84.2,73.4,70,29.77,5.6,West,9.2,-,N/A,,Mostly Cloudy,270,2012-11-02 09:30:00
5:00 PM,80.6,75.2,84,29.80,1.9,East,13.8,-,N/A,Rain,Rain,90,2012-11-02 10:00:00
5:30 PM,73.4,71.6,94,29.80,0.9,NNE,13.8,-,N/A,Rain,Heavy Rain,30,2012-11-02 10:30:00
6:00 PM,73.4,71.6,94,29.80,3.1,Variable,5.8,-,N/A,Rain,Light Rain,0,2012-11-02 11:00:00
6:30 PM,73.4,71.6,94,29.83,4.3,SSE,5.8,-,N/A,Rain,Light Rain,150,2012-11-02 11:30:00
7:00 PM,75,74,95,29.78,4,Calm,Calm,,,Rain,Light Rain,,2012-11-02 12:00:00
7:00 PM,75.2,73.4,94,29.83,4.3,Calm,Calm,-,N/A,,Mostly Cloudy,0,2012-11-02 12:00:00
7:30 PM,75.2,73.4,94,29.83,4.3,Calm,Calm,-,N/A,,Mostly Cloudy,0,2012-11-02 12:30:00
8:00 PM,73.4,71.6,94,29.83,4.3,Calm,Calm,-,N/A,,Mostly Cloudy,0,2012-11-02 13:00:00
8:30 PM,75.2,73.4,94,29.86,4.3,Variable,2.3,-,N/A,,Mostly Cloudy,0,2012-11-02 13:30:00
9:00 PM,75.2,73.4,94,29.86,5.0,Variable,1.2,-,N/A,,Mostly Cloudy,0,2012-11-02 14:00:00
9:30 PM,75.2,73.4,94,29.86,4.3,Variable,1.2,-,N/A,Rain,Light Rain,0,2012-11-02 14:30:00
10:00 PM,75.2,73.4,94,29.86,4.3,Calm,Calm,-,N/A,Rain,Light Rain,0,2012-11-02 15:00:00
10:30 PM,77.0,75.2,94,29.86,5.0,Calm,Calm,-,N/A,,Mostly Cloudy,0,2012-11-02 15:30:00
11:30 PM,75.2,73.4,94,29.86,5.0,Calm,Calm,-,N/A,,Mostly Cloudy,0,2012-11-02 16:30:00